This demonstration page uses our WeatherBlox Daily Observations layout. Learn more.

Left ArrowRight Arrow

Hourly Observations for February 10, 2016

Temp ( °F °C ) Dew Point ( °F °C ) Humidity (%) Winds ( mph kmh ) Pressure ( in mb ) Visibility ( mi km ) Precip ( " mm )
12:54 am 00:54 Cloudy 23 -5 16 -8.9 74 74 S 5 7 30.23 1024 10 16 0.00 0.00
1:54 am 01:54 Cloudy 24 -4.4 17 -8.3 75 75 S 6 9 30.20 1023 10 16 0.00 0.00
2:54 am 02:54 Cloudy 26 -3.3 17 -8.3 69 69 SSW 10 17 30.16 1021 10 16 0.00 0.00
3:54 am 03:54 Cloudy 27 -2.8 16 -8.9 63 63 S 6 9 30.14 1021 10 16 0.00 0.00
4:54 am 04:54 Cloudy 27 -2.8 18 -7.8 69 69 S 8 13 30.11 1020 10 16 0.00 0.00
5:54 am 05:54 Cloudy 28 -2.2 18 -7.8 66 66 S 9 15 30.09 1019 10 16 0.00 0.00
6:54 am 06:54 Clear 27 -2.8 17 -8.3 66 66 S 10 17 30.05 1018 10 16 0.00 0.00
7:54 am 07:54 Sunny 27 -2.8 17 -8.3 66 66 S 12 19 30.02 1017 10 16 0.00 0.00
8:54 am 08:54 Mostly Sunny 28 -2.2 18 -7.8 66 66 S 13 20 30.01 1016 10 16 0.00 0.00
9:54 am 09:54 Partly Cloudy 28 -2.2 20 -6.7 72 72 S 9 15 30.00 1016 10 16 0.00 0.00
10:54 am 10:54 Sunny 31 -0.6 23 -5 72 72 SW 6 9 29.99 1016 10 16 0.00 0.00
11:54 am 11:54 Sunny 34 1.1 25 -3.9 70 70 SW 9 15 29.95 1014 10 16 0.00 0.00
12:54 pm 12:54 Sunny 37 2.8 27 -2.8 67 67 Calm 29.93 1014 10 16 0.00 0.00
1:54 pm 13:54 Sunny 40 4.4 28 -2.2 63 63 NE 6 9 29.93 1013 10 16 0.00 0.00
2:54 pm 14:54 Sunny 41 5 28 -2.2 60 60 NNE 6 9 29.92 1013 10 16 0.00 0.00
3:54 pm 15:54 Sunny 39 3.9 28 -2.2 65 65 NE 8 13 29.95 1014 10 16 0.00 0.00
4:54 pm 16:54 Sunny 38 3.3 28 -2.2 68 68 NE 8 13 29.98 1015 10 16 0.00 0.00
5:54 pm 17:54 Sunny 34 1.1 27 -2.8 76 76 NNE 6 9 30.01 1016 10 16 0.00 0.00
6:54 pm 18:54 Clear 31 -0.6 26 -3.3 82 82 N 10 17 30.05 1018 10 16 0.00 0.00
7:54 pm 19:54 Clear 31 -0.6 25 -3.9 79 79 N 8 13 30.09 1019 10 16 0.00 0.00
8:54 pm 20:54 Clear 30 -1.1 24 -4.4 79 79 NNE 16 26 30.12 1020 10 16 0.00 0.00
9:54 pm 21:54 Clear 25 -3.9 21 -6.1 85 85 NNE 14 22 30.16 1022 10 16 0.00 0.00
10:23 pm 22:23 Mostly Cloudy 25 -4 21 -6 86 86 NNE 13 20 30.24 1024 10 16 0.00 0.00
10:54 pm 22:54 Cloudy 23 -5 20 -6.7 88 88 N 8 13 30.20 1023 9 14 0.00 0.00
11:20 pm 23:20 Partly Cloudy 21 -6 19 -7 93 93 N 9 15 30.27 1025 8 13 0.00 0.00
11:54 pm 23:54 Clear 22 -5.6 18 -7.8 85 85 N 10 17 30.22 1023 8 13 0.00 0.00

Powered by AerisWeather